TimeCET,TemperatureF,Dew PointF,Humidity,Sea Level PressureIn,VisibilityMPH,Wind Direction,Wind SpeedMPH,Gust SpeedMPH,PrecipitationIn,Events,Conditions,WindDirDegrees,DateUTC
12:00 AM,33.8,33.8,100,29.53,5.6,West,2.3,-,N/A,,Unknown,260,2013-03-17 23:00:00
12:30 AM,33.8,33.8,100,29.53,5.6,Variable,1.2,-,N/A,,Unknown,0,2013-03-17 23:30:00
1:00 AM,32.0,32.0,100,29.53,5.6,West,2.3,-,N/A,,Unknown,270,2013-03-18 00:00:00
1:30 AM,32.0,32.0,100,29.53,5.0,Calm,Calm,-,N/A,,Unknown,0,2013-03-18 00:30:00
2:00 AM,32.0,32.0,100,29.53,5.0,Calm,Calm,-,N/A,,Unknown,0,2013-03-18 01:00:00
2:30 AM,30.2,30.2,100,29.53,5.0,Variable,1.2,-,N/A,,Scattered Clouds,0,2013-03-18 01:30:00
3:00 AM,32.0,32.0,100,29.53,3.7,North,1.2,-,N/A,,Scattered Clouds,10,2013-03-18 02:00:00
3:30 AM,32.0,32.0,100,29.53,2.5,Calm,Calm,-,N/A,,Scattered Clouds,0,2013-03-18 02:30:00
4:00 AM,33.8,33.8,100,29.53,3.1,SSW,3.5,-,N/A,,Partly Cloudy,210,2013-03-18 03:00:00
4:30 AM,33.8,33.8,100,29.53,3.1,SW,9.2,-,N/A,,Mist,220,2013-03-18 03:30:00
5:00 AM,33.8,33.8,100,29.53,3.1,SW,9.2,-,N/A,,Mist,220,2013-03-18 04:00:00
5:30 AM,33.8,32.0,93,29.53,3.7,SSW,12.7,-,N/A,,Unknown,210,2013-03-18 04:30:00
6:00 AM,33.8,32.0,93,29.53,5.0,SSW,11.5,-,N/A,,Unknown,210,2013-03-18 05:00:00
6:30 AM,35.6,32.0,87,29.56,5.0,South,10.4,-,N/A,,Unknown,190,2013-03-18 05:30:00
7:00 AM,35.6,32.0,87,29.56,6.2,South,8.1,-,N/A,,Scattered Clouds,190,2013-03-18 06:00:00
7:30 AM,35.6,32.0,87,29.56,6.2,South,9.2,-,N/A,,Scattered Clouds,190,2013-03-18 06:30:00
8:00 AM,37.4,30.2,75,29.56,-9999.0,South,1.2,-,N/A,,Clear,180,2013-03-18 07:00:00
8:30 AM,37.4,30.2,75,29.56,-9999.0,NNE,3.5,-,N/A,,Clear,30,2013-03-18 07:30:00
9:00 AM,37.4,32.0,81,29.59,-9999.0,North,3.5,-,N/A,,Clear,350,2013-03-18 08:00:00
9:30 AM,39.2,32.0,75,29.59,6.2,NW,1.2,-,N/A,,Scattered Clouds,320,2013-03-18 08:30:00
10:00 AM,41.0,33.8,76,29.59,6.2,West,13.8,-,N/A,,Scattered Clouds,260,2013-03-18 09:00:00
10:30 AM,42.8,32.0,66,29.59,6.2,WSW,17.3,-,N/A,,Scattered Clouds,240,2013-03-18 09:30:00
11:00 AM,44.6,35.6,71,29.62,6.2,WSW,16.1,-,N/A,,Scattered Clouds,250,2013-03-18 10:00:00
11:30 AM,44.6,33.8,66,29.62,6.2,WSW,16.1,-,N/A,,Scattered Clouds,250,2013-03-18 10:30:00
12:00 PM,44.6,32.0,61,29.62,6.2,WSW,18.4,-,N/A,,Scattered Clouds,250,2013-03-18 11:00:00
12:30 PM,48.2,33.8,58,29.62,6.2,West,16.1,-,N/A,,Scattered Clouds,260,2013-03-18 11:30:00
1:00 PM,50.0,33.8,54,29.62,6.2,WSW,13.8,-,N/A,,Mostly Cloudy,250,2013-03-18 12:00:00
1:30 PM,46.4,33.8,62,29.65,6.2,West,18.4,31.1,N/A,Rain,Light Rain,280,2013-03-18 12:30:00
2:00 PM,48.2,37.4,66,29.65,6.2,WNW,12.7,-,N/A,,Scattered Clouds,290,2013-03-18 13:00:00
2:30 PM,50.0,35.6,58,29.65,6.2,WNW,15.0,-,N/A,,Partly Cloudy,290,2013-03-18 13:30:00
3:00 PM,51.8,33.8,50,29.65,6.2,WNW,10.4,-,N/A,,Scattered Clouds,290,2013-03-18 14:00:00
3:30 PM,51.8,32.0,47,29.62,6.2,WNW,13.8,-,N/A,,Scattered Clouds,290,2013-03-18 14:30:00
4:00 PM,51.8,30.2,44,29.62,6.2,WNW,8.1,-,N/A,,Scattered Clouds,290,2013-03-18 15:00:00
4:30 PM,50.0,24.8,37,29.62,6.2,NW,10.4,-,N/A,,Scattered Clouds,310,2013-03-18 15:30:00
5:00 PM,50.0,28.4,43,29.65,6.2,WNW,8.1,-,N/A,,Scattered Clouds,300,2013-03-18 16:00:00
5:30 PM,50.0,30.2,47,29.65,6.2,NNW,5.8,-,N/A,,Scattered Clouds,330,2013-03-18 16:30:00
6:00 PM,50.0,32.0,50,29.65,6.2,WNW,2.3,-,N/A,,Scattered Clouds,300,2013-03-18 17:00:00
6:30 PM,48.2,32.0,54,29.65,6.2,NNW,2.3,-,N/A,,Scattered Clouds,330,2013-03-18 17:30:00
7:00 PM,44.6,35.6,71,29.68,6.2,NNE,13.8,-,N/A,,Scattered Clouds,20,2013-03-18 18:00:00
7:30 PM,44.6,37.4,76,29.68,6.2,NNE,10.4,-,N/A,,Scattered Clouds,30,2013-03-18 18:30:00
8:00 PM,42.8,35.6,76,29.68,6.2,NNE,9.2,-,N/A,,Scattered Clouds,20,2013-03-18 19:00:00
8:30 PM,41.0,37.4,87,29.71,6.2,NE,3.5,-,N/A,,Scattered Clouds,40,2013-03-18 19:30:00
9:00 PM,42.8,35.6,76,29.71,6.2,NNE,5.8,-,N/A,,Scattered Clouds,20,2013-03-18 20:00:00
9:30 PM,41.0,35.6,81,29.71,6.2,Variable,1.2,-,N/A,,Scattered Clouds,0,2013-03-18 20:30:00
10:00 PM,41.0,35.6,81,29.71,6.2,Variable,1.2,-,N/A,,Scattered Clouds,0,2013-03-18 21:00:00
10:30 PM,37.4,35.6,93,29.71,6.2,Calm,Calm,-,N/A,,Partly Cloudy,0,2013-03-18 21:30:00
11:00 PM,35.6,33.8,93,29.71,6.2,SSW,2.3,-,N/A,,Partly Cloudy,210,2013-03-18 22:00:00
11:30 PM,37.4,35.6,93,29.71,6.2,Variable,1.2,-,N/A,,Partly Cloudy,0,2013-03-18 22:30:00